Location: Baumgartsau
(48.4586°N, 14.0864°E)
Time: 04:59:59
(UTC+00:00)

Cosmos 2100 Rocket - Pass Details

Date: 09 April 2020
Orbit: 957 x 1000 km, 82.9° (Epoch: 01 June)

Event Time Altitude Azimuth Distance (km) Brightness Sun altitude
Rises 22:12:43 0° 351° (N) 3,671 8.1 -32.4°
Reaches altitude 10° 22:15:14 10° 352° (N) 2,725 7.2 -32.5°
Enters shadow 22:20:35 66° 11° (NNE) 1,062 4.2 -32.7°
